TIME,DELAY(SENSOR),PRES,T(CTD),SAL,OXYGEN,RAWTEMP,T(OPTODE),TCPHASE,FLUOR,BETA(BETA700),BETA(BETA412),BETA(BETA440),CDOM,C(CSC),ED(ED411.90),ED(ED443.80),ED(ED489.40),ED(ED554.70),LU(LU412.20),LU(LU443.80),LU(LU489.40),LU(LU555.00),COMP,TILTX,TILTX(TILTY),CHECK
1349969003,5804,497.5899963378906000,17.0550994873046880,36.3773002624511700,222.8809051513672000,200.7127075195312500,17.0600109100341800,32.5331497192382800,50,101,62,81,58,2232,2147484114,2147769654,2147558930,2147795227,2147313435,2147473828,2147711497,2148244589,2509,7,13,57347
1349969145,5803,486.9200134277344000,17.1847991943359380,36.4029006958007800,226.4199981689453000,196.6394958496093800,17.1839008331298830,32.2955284118652340,50,101,62,82,57,2231,2147481334,2147767698,2147557312,2147796626,2147312219,2147475337,2147710381,2148247323,2305,7,13,46828
1349969280,5804,474.9100036621094000,17.2828998565673830,36.4224014282226560,227.2859954833984400,193.1047973632812500,17.2914295196533200,32.2033004760742200,49,101,62,82,57,2236,2147482971,2147767122,2147561764,2147796498,2147314230,2147485485,2147708754,2148248786,2499,7,12,10506
1349969389,5805,463.6900024414062500,17.4015998840332030,36.4440994262695300,228.4299011230468800,189.3603057861328000,17.4053497314453120,32.0943984985351560,49,101,61,83,59,2239,2147481389,2147762761,2147556342,2147793133,2147312237,2147476790,2147711469,2148245641,2801,7,12,35422
1349969487,5803,453.2999877929687500,17.5109996795654300,36.4655990600585940,230.0673980712890600,186.0191955566406200,17.5070095062255860,31.9672908782959000,49,101,61,81,58,2244,2147484909,2147767616,2147561298,2147793700,2147317330,2147472758,2147712841,2148246317,2768,7,12,57996
1349969604,5803,441.6499938964844000,17.6149997711181640,36.4864997863769500,232.3594055175781200,182.5325012207031200,17.6131191253662100,31.8067607879638670,49,101,59,82,57,2248,2147486125,2147764169,2147557494,2147795995,2147315977,2147478107,2147710957,2148246144,2146,7,13,39216
1349969724,5802,430.6400146484375000,17.6830997467041000,36.4972991943359400,233.0585021972656200,180.3161926269531200,17.6805706024169920,31.7427101135253900,50,100,62,82,58,2250,2147486217,2147765202,2147557915,2147795629,2147316068,2147477412,2147704850,2148245220,2060,7,13,6754
1349969846,5800,419.1799926757812500,17.7707996368408200,36.5149002075195300,234.0003051757812500,177.4799041748047000,17.7668991088867200,31.6583805084228500,49,100,61,84,58,2253,2147487021,2147767433,2147558738,2147793042,2147313435,2147474011,2147708288,2148243584,1413,7,12,17745
1349969966,5803,407.7699890136719000,17.8500003814697270,36.5278015136718750,235.0585937500000000,174.8126983642578000,17.8481006622314450,31.5712394714355470,50,101,62,83,59,2254,2147488868,2147765549,2147558354,2147795254,2147309705,2147479926,2147710308,2148245458,1023,7,13,8890
1349970075,5806,397.4599914550781000,17.8850994110107420,36.5323982238769500,235.0679931640625000,173.7041015625000000,17.8818492889404300,31.5555305480957030,50,101,61,82,58,2256,2147486884,2147766409,2147558692,2147791122,2147307154,2147476397,2147708717,2148244708,954,7,12,15138
1349970197,5804,386.0100097656250000,17.9207000732421880,36.5371017456054700,234.5460052490234400,172.5666961669922000,17.9164791107177730,31.5654296875000000,50,102,62,83,58,2260,2147488658,2147766116,2147559707,2147791954,2147314550,2147474697,2147707620,2148245238,770,7,13,14367
1349970317,5806,374.7999877929687500,17.9605998992919920,36.5428009033203100,234.3159027099609400,171.0626068115234400,17.9622707366943360,31.5562801361084000,50,102,62,82,57,2266,2147485933,2147768374,2147560603,2147792054,2147303579,2147473060,2147704740,2148242560,465,7,12,21727
1349970437,5806,363.8599853515625000,18.0214996337890620,36.5519981384277340,234.9947052001953000,169.2628936767578000,18.0170707702636720,31.4993095397949220,49,102,61,82,57,2262,2147487881,2147764041,2147556845,2147792685,2147316790,2147477019,2147705133,2148241938,692,7,13,23032
1349970560,5803,352.8500061035156000,18.0457000732421880,36.5532989501953100,234.3616027832031200,168.4523925781250000,18.0417594909667970,31.5189094543457030,50,102,61,82,58,2264,2147489033,2147769545,2147556662,2147795072,2147318016,2147477787,2147709915,2148241417,3250,7,12,36474
1349970680,5806,342.2999877929687500,18.0804004669189450,36.5583000183105500,233.5677032470703000,167.2613983154297000,18.0780296325683600,31.5414390563964840,50,105,62,81,58,2268,2147488658,2147768694,2147560850,2147793545,2147310884,2147479542,2147710162,2148242121,3366,7,12,10259
1349970802,5804,331.4299926757812500,18.1310997009277340,36.5646018981933600,233.0097045898437500,165.6983947753906200,18.1256294250488280,31.5471992492675780,50,103,60,82,58,2271,2147488347,2147769609,2147564388,2147795419,2147316699,2147481572,2147711222,2148244114,3174,7,12,65449
1349970933,5805,320.1099853515625000,18.1697998046875000,36.5700988769531250,233.0693054199218800,164.2646942138672000,18.1693000793457030,31.5252990722656250,49,101,61,81,58,2275,2147486482,2147764342,2147567506,2147792530,2147310811,2147479314,2147710098,2148243053,3015,7,12,10702
1349971064,5805,309.1700134277344000,18.2469005584716800,36.5807991027832000,233.8197937011718800,161.8851013183593800,18.2417907714843750,31.4567794799804700,49,101,61,83,58,2279,2147488630,2147765083,2147570797,2147794029,2147307538,2147479305,2147715803,2148240429,2599,7,13,21500
1349971198,5803,298.5299987792969000,18.2873001098632800,36.5844001770019500,233.2315979003906200,160.2796936035156200,18.2907009124755860,31.4635906219482420,49,102,62,82,60,2287,2147489618,2147770916,2147575844,2147793060,2147308434,2147482084,2147716306,2148242477,3164,7,12,49240
1349971340,5803,287.6000061035156000,18.3673000335693360,36.5923995971679700,233.0494995117187500,157.7666015625000000,18.3672695159912100,31.4387702941894530,50,101,60,82,57,2291,2147489078,2147773641,2147577152,2147792512,2147306971,2147483885,2147719926,2148241938,3055,6,13,65324
1349971491,5802,275.0000000000000000,18.4785995483398440,36.6015014648437500,229.7881927490234400,154.0525970458984400,18.4804592132568360,31.5483894348144530,50,102,61,83,58,2294,2147487963,2147777225,2147596516,2147790720,2147307757,2147484050,2147726491,2148241910,2834,7,12,50578
1349971600,5805,264.2099914550781000,18.5883007049560550,36.6046981811523440,227.0767974853515600,150.9774017333984400,18.5741901397705080,31.6411705017089840,50,102,60,82,60,2295,2147490002,2147784384,2147608667,2147788818,2147302290,2147493769,2147734994,2148242770,3198,7,12,37131
1349971720,5805,252.6300048828125000,18.6676998138427730,36.6055984497070300,225.2568969726562500,147.7142028808593800,18.6736793518066400,31.6885509490966800,50,101,61,82,58,2298,2147492169,2147792621,2147641764,2147790217,2147310134,2147495917,2147755090,2148241956,207,7,12,40256
1349971832,5801,242.0899963378906200,18.7808990478515620,36.6081008911132800,225.1121978759765600,144.0865936279297000,18.7843093872070300,31.6472301483154300,50,102,61,84,58,2303,2147491584,2147808786,2147690157,2147788516,2147313398,2147508800,2147784201,2148246262,3083,7,12,40133
1349971952,5804,230.6799926757812500,18.9691009521484380,36.6118011474609400,228.3493957519531200,138.2144927978515600,18.9634399414062500,31.4071102142334000,50,100,61,83,58,2303,2147491675,2147818029,2147702409,2147790253,2147309138,2147511652,2147791387,2148245001,191,7,12,18958
1349972061,5805,220.2899932861328000,19.0401000976562500,36.6077003479003900,230.9904937744140600,135.8569030761718800,19.0353794097900400,31.2462806701660160,50,102,61,82,58,2306,2147494537,2147845348,2147772598,2147788672,2147314285,2147531757,2147826715,2148250514,178,7,12,2966
1349972184,5802,209.3399963378906200,19.1259994506835940,36.5932006835937500,238.3890075683593800,132.8186950683593800,19.1281108856201170,30.8526096343994140,50,100,61,81,58,2308,2147502180,2147874267,2147838363,2147787766,2147320576,2147548406,2147867675,2148248740,494,7,12,10903
1349972315,5802,198.3399963378906200,19.1886005401611330,36.5857009887695300,243.8343048095703000,130.9497985839843800,19.1851692199707030,30.5765399932861330,50,99,62,82,57,2312,2147505389,2147874011,2147837668,2147787693,2147317686,2147554066,2147865024,2148248841,869,7,12,62860
1349972369,5800,194.0500030517578000,19.2275009155273440,36.5863990783691400,244.4145965576172000,129.5350952148437500,19.2283592224121100,30.5314998626709000,50,98,60,82,56,2314,2147510299,2147914102,2147928054,2147789970,2147318866,2147581787,2147919890,2148253101,1035,6,12,21730
1349972443,5804,188.6900024414062500,19.2726993560791000,36.5881996154785160,245.2174987792968800,128.1562957763672000,19.2704601287841800,30.4772300720214840,50,101,60,83,56,2313,2147519012,2147951149,2148009033,2147793901,2147325842,2147604352,2147966253,2148255094,627,7,13,23624
1349972497,5805,185.2100067138672000,19.2961997985839840,36.5885009765625000,245.2039031982422000,127.4073028564453100,19.2933292388916000,30.4680995941162100,50,100,61,83,57,2315,2147522834,2147972297,2148061577,2147792347,2147325312,2147620653,2147999442,2148258093,483,7,12,35002
1349972562,5806,181.1399993896484400,19.3232994079589840,36.5884017944335940,245.6450042724609400,126.5076980590820300,19.3208103179931640,30.4364204406738280,50,101,61,82,56,2322,2147530441,2148006162,2148134445,2147786678,2147327085,2147637330,2148040219,2148260772,403,7,12,5412
1349972627,5807,177.2799987792968800,19.3530006408691400,36.5886001586914060,246.0756072998047000,125.5682983398437500,19.3495006561279300,30.4046192169189450,50,100,61,82,57,2324,2147539785,2148035785,2148199168,2147790189,2147325065,2147661897,2148075931,2148263085,38,7,12,43165
1349972692,5802,173.4100036621093800,19.3815002441406250,36.5875015258789060,246.6741027832031200,124.6370010375976600,19.3779506683349600,30.3656806945800780,50,102,61,82,56,2325,2147548452,2148099328,2148336164,2147789312,2147339401,2147702601,2148155529,2148268416,3457,7,13,48789
1349972770,5800,169.2700042724609400,19.4141998291015620,36.5868988037109400,247.2295989990234400,123.5773010253906200,19.4103202819824220,30.3269195556640620,50,101,61,82,57,2328,2147553792,2148098752,2148331849,2147788342,2147339172,2147704292,2148152576,2148265673,3481,7,13,64538
1349972846,5803,165.8500061035156200,19.4400005340576170,36.5859985351562500,247.7994995117187500,122.7641983032226600,19.4351596832275400,30.2910900115966800,50,104,60,82,58,2332,2147560329,2148119716,2148371044,2147789613,2147334866,2147715565,2148171520,2148266139,3303,7,12,48863
1349972944,5801,161.3399963378906200,19.4953994750976560,36.5923004150390600,247.0442047119140600,121.0104980468750000,19.4887409210205080,30.3018302917480470,51,104,61,82,57,2333,2147562468,2148123227,2148373906,2147787172,2147346075,2147717494,2148174820,2148265773,3396,7,12,4970
1349973031,5803,157.3899993896484400,19.5417995452880860,36.5970001220703100,247.0774993896484400,119.3415985107421900,19.5397396087646500,30.2786693572998050,51,106,61,83,58,2341,2147591405,2148227620,2148607369,2147788982,2147361014,2147785609,2148313883,2148276973,2922,7,12,20290
1349973111,5803,153.8899993896484400,19.5876998901367200,36.6030006408691400,246.2469940185547000,117.9490966796875000,19.5823001861572270,30.2978706359863280,53,109,62,83,57,2341,2147609033,2148289947,2148741458,2147790006,2147365010,2147822354,2148377627,2148281161,2180,7,13,54865
1349973209,5804,149.6900024414062500,19.6310005187988280,36.6049003601074200,245.9082031250000000,116.4349975585937500,19.6285800933837900,30.2934398651123050,54,108,62,84,56,2341,2147644918,2148418230,2149008713,2147791981,2147378258,2147897682,2148530038,2148291638,1986,7,13,2822
1349973307,5801,145.9400024414062500,19.6905002593994140,36.6100006103515600,245.8952941894531200,114.4489974975586000,19.6893005371093750,30.2681694030761720,57,111,61,83,57,2342,2147687753,2148551780,2149276992,2147792603,2147393289,2147980141,2148679689,2148299346,1444,7,12,12612
1349973418,5804,142.0599975585937500,19.7497005462646500,36.6166000366210940,245.5874023437500000,112.5464019775390600,19.7474803924560550,30.2573890686035160,56,114,62,84,57,2340,2147733641,2148693339,2149560292,2147794816,2147421677,2148056356,2148827190,2148309312,636,7,12,33142
1349973538,5804,138.1900024414062500,19.8553009033203120,36.6236000061035160,244.9010009765625000,109.3713989257812500,19.8445892333984380,30.2469005584716800,59,115,62,85,57,2349,2147769389,2148763986,2149683858,2147796032,2147432749,2148090733,2148881435,2148312978,251,7,12,58291
1349973669,5805,133.9600067138672000,19.9318008422851560,36.6297988891601560,244.7505035400390600,106.7274017333984400,19.9254798889160160,30.2196407318115230,63,116,61,85,58,2354,2147789970,2148745298,2149572160,2147798153,2147447561,2148062006,2148794432,2148306550,640,7,12,45528
1349973778,5805,129.2500000000000000,20.0604000091552730,36.6366996765136700,244.9792938232422000,102.4833984375000000,20.0553703308105470,30.1543502807617200,71,116,62,85,58,2356,2147943780,2149160566,2150386697,2147805933,2147493760,2148276745,2149191067,2148335195,3425,7,13,52669
1349973854,5803,125.0899963378906200,20.1350002288818360,36.6418991088867200,245.4479980468750000,100.1600036621093800,20.1264991760253900,30.1033592224121100,73,117,62,85,57,2357,2147990308,2149219730,2150397997,2147806107,2147518162,2148277211,2149153490,2148338093,2970,7,13,63880
1349973919,5800,121.2500000000000000,20.1835994720459000,36.6451988220214840,245.8491058349609400,98.3936767578125000,20.1805896759033200,30.0626106262207030,75,118,61,85,57,2357,2148198729,2149739236,2151364032,2147819602,2147606464,2148523099,2149585673,2148370916,2962,7,12,39430
1349973984,5803,117.4899978637695300,20.2626991271972660,36.6506996154785160,246.0527954101562500,95.9003829956054700,20.2569599151611330,30.0214290618896500,82,121,63,85,56,2353,2148208521,2149609106,2150949668,2147814592,2147599378,2148418176,2149335341,2148353280,2467,7,12,57171
1349974063,5806,113.1100006103515600,20.3519001007080080,36.6539001464843750,246.4414978027343800,93.1072082519531200,20.3425407409667970,29.9680500030517580,84,121,61,85,58,2350,2148401161,2149978797,2151474267,2147825664,2147670857,2148550729,2149509796,2148372214,2236,7,13,9428
1349974139,5804,109.1399993896484400,20.3924999237060550,36.6557006835937500,247.0272064208984400,91.6957168579101600,20.3857898712158200,29.9238395690917970,87,122,61,85,57,2353,2149009810,2151340809,2153828333,2147863762,2147888521,2149146441,2150543250,2148455515,1725,7,12,3539
1349974215,5802,105.4000015258789000,20.4671993255615230,36.6604003906250000,246.5861968994140600,89.3903503417968800,20.4564609527587900,29.9139003753662100,86,122,62,86,58,2357,2148666267,2150281728,2151648749,2147840978,2147759497,2148643355,2149543222,2148383963,1794,7,13,18176
1349974302,5804,101.5100021362304700,20.5391998291015620,36.6575012207031250,247.8085021972656200,87.1813735961914000,20.5241909027099600,29.8316497802734380,85,119,61,85,56,2365,2148743497,2150253787,2151389074,2147838162,2147783332,2148594715,2149395657,2148375689,2026,7,12,61732
1349974370,5804,98.9400024414062500,20.5928001403808600,36.6528015136718750,248.8963928222656200,85.6226577758789000,20.5719890594482420,29.7637901306152340,86,117,62,84,57,2361,2149250541,2151181485,2152761371,2147870153,2147959689,2148963648,2149934034,2148427364,2481,7,12,39229
1349974426,5802,97.1100006103515600,20.6802005767822270,36.6553001403808600,251.0796051025390600,82.6199035644531200,20.6641006469726560,29.6299705505371100,90,117,61,84,56,2360,2149520941,2151620690,2153325485,2147878390,2148044635,2149119524,2150139437,2148445869,2994,7,12,35833
1349974492,5805,95.0999984741211000,20.7612991333007800,36.6617012023925800,252.8925018310547000,80.8462066650390600,20.7185192108154300,29.5290298461914060,90,118,61,83,57,2360,2150650422,2153758281,2156610029,2147949458,2148428233,2149975616,2151466038,2148564717,3312,7,12,50349
1349974558,5803,93.0199966430664000,20.8791007995605470,36.6719017028808600,254.4815979003906200,76.3174896240234400,20.8575401306152340,29.4034690856933600,89,119,62,85,57,2360,2150561664,2153377380,2155790875,2147948525,2148387190,2149784512,2151103314,2148539465,3517,7,13,54303
1349974624,5805,91.0299987792968800,20.9276008605957030,36.6725006103515600,256.2103881835937500,74.4953994750976600,20.9134902954101560,29.3069801330566400,90,119,63,84,58,2374,2150470720,2153051437,2155123044,2147938998,2148350317,2149621120,2150801755,2148513810,3230,7,12,42966
1349974702,5801,88.3700027465820300,21.0491008758544920,36.6733016967773440,256.1901855468750000,70.8720779418945300,21.0247993469238280,29.2620201110839840,84,118,62,85,56,2386,2150708425,2153224731,2155116370,2147949211,2148416246,2149656548,2150768667,2148521152,2877,7,12,53639
1349974758,5804,86.1200027465820300,21.1205005645751950,36.6744995117187500,258.4183959960937500,67.9710235595703100,21.1139507293701170,29.1319103240966800,85,119,62,85,58,2383,2151229193,2153903542,2155858304,2147980214,2148590601,2149898880,2151047469,2148555821,3083,6,12,31902
1349974813,5804,84.1999969482421900,21.2509994506835940,36.6814002990722660,261.0614929199219000,64.0232467651367200,21.2353305816650400,28.9724006652832030,85,117,62,85,56,2388,2151788352,2154671652,2156761353,2148013668,2148784283,2150190418,2151419922,2148593563,2581,7,12,63434
1349974868,5803,82.5400009155273400,21.2879009246826170,36.6657981872558600,263.7325134277344000,62.5568809509277340,21.2804393768310550,28.8445396423339840,80,118,62,86,56,2385,2152673417,2156009590,2158500251,2148073060,2149096310,2150721956,2152139702,2148668443,2204,7,12,55905
1349974923,5805,81.0199966430664000,21.3481998443603500,36.6553001403808600,265.0804138183594000,60.5981903076171900,21.3406906127929700,28.7653808593750000,77,119,61,83,56,2379,2153466989,2157147200,2159947849,2148133485,2149379035,2151177316,2152727771,2148733952,1864,7,12,48929
1349975014,5803,78.2399978637695300,21.4937000274658200,36.6565017700195300,264.7036132812500000,56.2831916809082000,21.4734992980957030,28.7269096374511720,76,118,61,86,56,2373,2155106998,2159434852,2162762989,2148260425,2150008886,2152154806,2153961197,2148873307,1317,7,12,21725
1349975069,5804,75.9800033569336000,21.6504993438720700,36.6529006958007800,265.0816955566406000,50.7308692932128900,21.6445198059082030,28.6425590515136720,77,121,61,86,55,2373,2155494546,2159553499,2162415808,2148276260,2150202870,2152294198,2153955099,2148881609,1244,7,12,29394
1349975124,5802,74.0599975585937500,21.7695007324218750,36.6520004272460940,265.0647888183594000,46.5279808044433600,21.7740592956542970,28.5911006927490230,76,118,62,86,56,2378,2158281792,2163499986,2167334747,2148483510,2151212681,2153865856,2155915840,2149101933,1221,7,13,54156
1349975190,5804,72.0100021362304700,21.9850997924804700,36.6540985107421900,265.4632873535156000,40.7424888610839840,21.9525108337402340,28.5031700134277340,74,123,62,86,55,2375,2157984201,2162179227,2164669467,2148423341,2151170505,2153416073,2154956937,2149016868,1413,7,12,42188
1349975256,5805,69.7099990844726600,22.0739002227783200,36.6506004333496100,264.6838989257812500,37.4092903137207000,22.0554008483886720,28.4934291839599600,75,121,63,85,55,2369,2158719597,2162486582,2164348653,2148462610,2151483940,2153600484,2154867922,2149023140,2111,7,12,6090
1349975334,5806,65.8600006103515600,22.3148002624511720,36.6363983154296900,267.4883117675781000,29.6540794372558600,22.2949905395507800,28.2853393554687500,71,121,62,88,55,2373,2160979894,2164496713,2165795547,2148633353,2152514669,2154635474,2155673453,2149146185,2252,7,12,22021
1349975389,5804,62.5999984741210940,22.6210994720459000,36.6397018432617200,269.2811889648437500,20.8314094543457030,22.5679302215576170,28.1061897277832030,70,120,62,87,53,2367,2163023826,2166454482,2167431945,2148798500,2153531273,2155710765,2156571035,2149270637,3011,7,13,34029
1349975444,5803,60.3699989318847660,22.7553997039794920,36.6349983215332000,269.9620971679687500,15.7977800369262700,22.7238292694091800,28.0177898406982420,71,122,62,87,54,2371,2164844278,2168322066,2169181174,2148962276,2154466340,2156697206,2157480219,2149388086,3562,7,12,47032
1349975499,5802,59.7900009155273440,22.8080997467041000,36.6349983215332000,270.4945068359375000,13.7848997116088870,22.7862205505371100,27.9724807739257800,71,122,63,87,53,2378,2166339328,2170035026,2170949568,2149065472,2155064310,2157487698,2158302253,2149487780,3188,7,12,24140
1349975710,5800,56.9799995422363300,23.2766990661621100,36.6134986877441400,271.0639953613281000,-1.5659899711608887,23.2626991271972660,27.7631893157959000,67,123,62,88,54,2381,2175767725,2180368009,2181333842,2149919323,2160087716,2163265792,2163873234,2150181275,1407,6,12,19958
1349975765,5805,55.0400009155273440,23.4463005065917970,36.6046981811523440,271.0510864257812500,-6.1859698295593260,23.4063701629638670,27.7076396942138670,66,124,62,86,53,2382,2179105609,2184002102,2185079808,2150333056,2162058486,2165473472,2165946358,2150453915,785,7,12,43537
1349976020,5803,53.5900001525878900,23.7933006286621100,36.5778999328613300,269.9667968750000000,-17.2250995635986330,23.7501697540283200,27.6159706115722660,67,126,61,87,56,2375,2192253010,2198338422,2199449865,2151512612,2169463762,2174030427,2174356571,2151472521,1847,7,12,26376
1349976078,5803,51.8699989318847660,23.8348999023437500,36.5752983093261700,269.6101074218750000,-19.2187099456787100,23.8123397827148440,27.6056404113769530,68,128,63,87,56,62,2213245202,2222985773,2226373696,2154072704,2180052150,2186862317,2187587949,2153219483,2137,7,12,18635
1349976150,5803,49.9099998474121100,23.9708995819091800,36.5675010681152340,269.3428039550781000,-23.1567401885986330,23.9352207183837900,27.5683994293212900,66,125,62,88,52,2363,2202079588,2208295680,2209168256,2152820781,2175045211,2179685001,2179287131,2152235401,1980,8,12,20927
1349976306,5802,47.5999984741210940,24.4629993438720700,36.5377006530761700,267.1611938476562500,-34.9467582702636700,24.3036994934082030,27.5109596252441400,65,126,62,88,54,2360,2195859904,2199484132,2198474486,2152230793,2173059821,2176246034,2174897417,2151706660,2280,8,12,45877
1349976375,5805,45.7900009155273440,24.6126003265380860,36.5133018493652340,267.3873901367187500,-41.7885093688964840,24.5179500579834000,27.4195499420166000,64,128,63,90,52,2353,2204874459,2209312868,2208503113,2153477348,2178297060,2181683282,2179613696,2152414409,3131,8,12,13595
1349976957,5804,43.8800010681152340,25.9088993072509770,36.5415000915527340,258.3453063964844000,-84.9430694580078100,25.8770408630371100,27.2581691741943360,61,125,62,88,52,2307,2220866267,2225806793,2224360347,2155539702,2191777152,2195241764,2190767424,2153834496,3118,6,11,61382
1349977302,5803,41.6699981689453100,26.2301998138427730,36.5616989135742200,254.2044067382812500,-95.7471466064453100,26.2195205688476560,27.2958908081054700,62,124,61,88,51,2276,2225571200,2230025453,2228426907,2156902354,2198720064,2201031597,2194803730,2154534162,2972,8,12,63381
1349977371,5806,39.8600006103515600,26.3293991088867200,36.5523986816406250,253.2727966308593800,-98.5406188964843800,26.3082294464111330,27.3004207611084000,60,124,61,88,53,2274,2234757796,2239626331,2238096576,2158862720,2206730523,2208715145,2200961874,2155486272,3423,8,12,29727
1349977500,5804,37.5499992370605500,26.7327003479003900,36.5292015075683600,249.6459960937500000,-110.2449035644531200,26.6805992126464840,27.3089504241943360,59,123,63,89,52,2270,2265993984,2273821366,2274130358,2165422381,2233890368,2236626413,2225034898,2159043154,3484,8,12,59843
1349977844,5805,35.7000007629394500,27.0814990997314450,36.5237007141113300,241.2774963378906200,-123.0889968872070300,27.0905990600585940,27.5077991485595700,59,122,62,90,52,2263,2263249170,2269293174,2268567506,2165897033,2242725458,2242637723,2227257344,2159712731,577,7,12,20897